SL-16 DEB, 22616

Orbit data source: Space-Track

SL-16 DEB, 22616 is space debris in LEO originally from a launch on Fri, 26 Mar 1993 UTC launched from the Tyuratam Missile And Space Complex (TTMTR). Debris objects in space refer to the collection of defunct objects orbiting the Earth. Examples of debris include non-operational satellites, rocket bodies, and fragments generated from explosions, collisions, or faulty payload assembly.

Loading next visibility...
Identifier
22616, 1993-016AA
Orbit
LEO
Last TLE update
14 hours ago
Origin
Manufacturer
Unknown
Mission
Spacecraft
Bus & Motor
Unknown
Mass
Unknown
Launch date (UTC)
1993-03-26 (32 years ago)
Launch vehicle
Unknown
Launch site
Tyuratam Missile And Space Complex (TTMTR)
Object type
Payload
Rocket body
Debris
Shape & HBR
Unknown
Radar Cross Section
Small (<0.1 m²)

Expand to show TLE details & history

TLE from 14 hours ago
0 SL-16 DEB
1 22616U 93016AA  25128.65004566  .00000116  00000-0  14948-3 0  9993
2 22616  70.9961 332.1206 0186147  31.4587  26.3381 13.73910463609525
Epoch: 2025-05-08T15:36Z
Definitive object data (Epoch: 2025-05-08T15:36:03.945Z)
Latitude
54.05477°
Longitude
-100.41826°
Altitude
871.559 km
Speed
7.483 km/s
True Right ascension
00h 01m 15s
True Declination
53° 53' 37"
Sunlit
Object was in daylight at TLE epoch
Visualization TLE readout
Latitude
46.70421°
Longitude
28.89285°
Altitude
1,011.563 km
Speed
7.341 km/s
Apparent Right ascension
05h 25m 55s
Apparent Declination
11° 10' 37"
Sunlit
Object is in daylight
Visualization observer readout
Local Sidereal Time
14:03:53
Azimuth
305.948° NW
Elevation
-20.741°
Doppler factor
1
Orbital elements
Apogee altitude
1,120.565 km
Perigee altitude
846.495 km
Semi-major axis
7,361.667 km
Eccentricity
0.0186147
Inclination
70.9961°
RAAN
332.1206°
Arg. of periapsis
31.4587°
True anomaly
27.30457°
Mean anomaly
26.3381°
Eccentric anomaly
26.8193°
Mean motion
3.4362 °/min
BSTAR
0.00014948
Orbital period
104.77 mins
Loading maneuver chart data...
Loading SW <> Apogee altitude chart data...
Loading historical data...
Loading historical data...
Loading historical data...
Loading historical data...
Loading historical data...
Loading historical data...
Loading historical data...

SL-16 DEB Visibility forecast

Observer location: undefined°, undefined°

Span
Click to sort rows by Start time (UTC) header in descending order
Start Az.
Max El. time (UTC)
Max El. Az.
Max El.
End time (UTC)
End Az.
9 mins2025-05-09 14:09:08.328Z169.109° S2025-05-09 14:14:08.328Z94.349° ESE31.497°2025-05-09 14:18:08.328Z42.185° NE
7 mins2025-05-09 15:58:08.328Z260.142° W2025-05-09 16:01:08.328Z307.373° NW25.742°2025-05-09 16:05:08.328Z358.752° N
9 mins2025-05-09 23:20:08.328Z10.002° NNE2025-05-09 23:24:08.328Z61.828° ENE24.864°2025-05-09 23:29:08.328Z111.902° ESE
11 mins2025-05-10 01:06:08.328Z324.013° NNW2025-05-10 01:11:08.328Z254.979° W38.68°2025-05-10 01:17:08.328Z179.593° S
|